Date,TemperatureHighF,TemperatureAvgF,TemperatureLowF,DewpointHighF,DewpointAvgF,DewpointLowF,HumidityHigh,HumidityAvg,HumidityLow,PressureMaxIn,PressureMinIn,WindSpeedMaxMPH,WindSpeedAvgMPH,GustSpeedMaxMPH,PrecipitationSumIn
2014-1-1,15.1,12.6,10.2,9.7,5.4,1.5,81,72,66,30.27,30.09,6,1,6,0.17
2014-1-2,14.5,10.7,2.8,4.9,-0.7,-11.6,67,60,50,30.24,30.00,10,2,10,0.17
2014-1-3,17.2,7.7,-3.5,-0.9,-7.7,-17.4,50,48,44,30.33,29.91,11,2,11,0.17
2014-1-4,32.9,24.9,13.1,26.5,13.3,-2.9,89,62,47,29.94,29.76,7,2,10,0.00
2014-1-5,34.9,25.0,16.3,26.6,22.1,0.0,92,89,82,29.97,29.71,9,1,9,0.17
2014-1-6,16.7,1.3,-11.2,11.5,-3.4,-15.6,83,80,79,30.03,29.74,11,2,11,0.17
2014-1-7,-1.8,-8.0,-9.6,-6.5,-12.5,-14.1,80,80,80,30.15,30.00,5,2,5,0.00
2014-1-9,22.3,18.5,10.0,17.9,10.1,1.9,83,70,56,30.47,30.18,6,2,6,0.00
2014-1-10,41.0,32.1,22.3,40.5,30.7,17.7,98,95,83,30.18,29.53,11,2,11,0.74
2014-1-11,41.0,36.5,32.5,40.5,34.9,27.4,98,94,81,29.68,29.32,8,1,8,0.17
2014-1-12,37.9,33.8,30.0,28.7,26.3,24.6,84,74,61,29.91,29.62,12,2,13,0.00
2014-1-13,46.4,40.2,34.7,33.2,29.4,26.5,82,66,56,29.71,29.50,10,2,10,0.00
2014-1-14,36.3,30.5,24.8,31.1,22.7,14.9,93,74,50,29.74,29.56,10,2,10,0.00
2014-1-15,27.5,22.3,15.1,21.9,15.3,6.4,94,75,53,29.91,29.71,10,2,10,0.00
2014-1-16,29.5,22.7,14.0,28.7,18.4,6.4,98,84,69,29.82,29.44,10,2,10,0.00
2014-1-17,28.4,21.8,13.6,23.7,14.1,4.7,87,72,59,29.88,29.53,7,2,7,0.00
2014-1-18,22.5,17.3,14.0,11.7,9.3,7.0,80,71,54,29.85,29.74,7,2,7,0.00
2014-1-19,32.9,23.5,12.0,27.1,16.0,6.5,85,73,54,29.76,29.41,12,2,12,0.00
2014-1-20,35.1,26.5,11.1,28.7,17.0,2.6,79,67,55,29.97,29.41,7,2,7,0.00
2014-1-21,16.7,9.3,2.5,5.2,-4.1,-10.9,68,55,40,30.18,29.97,8,2,8,0.00
2014-1-22,13.6,9.4,7.5,-5.7,-9.6,-11.2,41,41,41,30.12,29.79,10,2,10,0.00
2014-1-23,19.0,11.8,4.8,5.7,-5.0,-13.7,69,46,41,30.39,29.88,4,1,4,0.00
2014-1-24,19.6,9.5,-4.4,17.9,-2.8,-18.7,93,58,49,30.39,29.41,14,3,14,0.04
2014-1-25,27.3,18.7,10.0,26.3,11.3,-1.1,98,74,48,29.71,29.26,14,2,14,0.00
2014-1-26,26.2,16.0,6.4,22.8,7.0,-4.5,90,67,60,29.71,29.26,6,2,10,0.00
2014-1-27,21.4,7.2,-2.0,15.3,3.1,-5.9,86,83,76,30.24,29.41,6,1,6,0.00
2014-1-28,11.1,-0.5,-9.9,6.8,-4.4,-13.7,83,83,83,30.27,30.03,6,1,6,0.00
2014-1-29,22.1,9.3,-0.4,9.4,-1.5,-7.0,83,63,44,30.09,29.97,9,2,9,0.00
2014-1-30,30.2,21.4,10.2,26.4,8.9,-6.8,89,59,45,29.97,29.62,16,3,16,0.00
2014-1-31,31.5,27.3,23.5,26.7,17.6,12.9,85,67,52,30.06,29.74,4,1,6,0.00
2014-2-1,30.6,26.1,23.2,27.0,22.1,17.4,89,85,74,30.06,29.74,4,0,4,0.00
2014-2-2,27.7,21.6,9.7,20.3,13.5,1.9,88,72,53,30.24,29.94,6,1,6,0.00
2014-2-3,28.9,13.9,0.9,12.8,3.1,-6.6,75,62,44,30.30,30.18,5,1,5,0.09
2014-2-4,27.7,17.8,8.2,14.4,6.6,-1.4,78,61,51,30.36,30.03,5,0,5,0.00
2014-2-5,27.0,20.1,14.7,16.3,11.1,2.3,88,69,51,30.30,29.88,9,2,9,0.00
2014-2-6,19.2,12.5,2.1,10.6,2.3,-10.1,78,63,54,30.30,30.18,8,2,8,0.00
2014-2-7,16.7,7.3,2.5,1.4,-6.5,-11.9,56,53,48,30.24,30.18,8,2,8,0.00
2014-2-8,22.1,12.6,4.6,8.1,-0.5,-11.2,77,56,46,30.21,30.00,7,1,7,0.00
2014-2-9,26.1,17.4,12.9,14.4,8.9,6.5,81,70,52,30.12,29.91,7,1,7,0.00
2014-2-10,23.0,14.8,10.9,11.0,5.0,-0.6,79,65,49,30.33,30.09,6,1,6,0.00
2014-2-11,23.4,11.9,2.8,5.5,-2.3,-11.2,60,52,43,30.41,30.30,6,1,6,0.00
2014-2-12,5.2,3.2,1.2,-10.2,-12.0,-14.1,48,48,48,30.33,30.30,6,1,6,0.00
2014-3-23,23.5,18.5,15.6,4.3,3.2,2.5,57,51,43,30.30,30.27,4,0,4,0.00
2014-3-24,15.6,15.1,14.9,5.4,3.9,2.9,65,61,57,30.30,30.27,0,0,0,0.00
2014-3-31,64.8,56.6,35.8,34.4,31.1,27.6,72,39,27,30.12,29.79,12,3,12,0.00
2014-4-1,52.9,44.9,36.3,43.6,28.9,21.6,83,54,42,30.03,29.68,11,2,11,0.08
2014-4-2,55.0,43.5,30.4,28.1,23.8,20.5,71,47,31,30.18,30.03,6,1,6,0.00
2014-4-3,45.1,38.6,33.1,36.3,28.7,18.1,95,70,40,30.12,29.71,8,2,8,0.67
2014-4-4,45.5,38.0,32.4,45.0,35.8,26.6,98,92,77,29.82,29.44,11,2,11,0.12
2014-4-5,48.4,37.5,30.6,27.7,20.7,13.4,85,53,31,30.15,29.82,8,1,8,0.04
2014-4-6,57.4,43.4,27.3,25.8,20.2,14.6,64,41,28,30.18,29.91,8,1,8,0.00
2014-4-7,54.5,43.3,33.6,34.6,26.4,20.3,68,52,33,29.97,29.53,6,1,6,0.00
2014-4-8,59.2,46.1,35.4,33.0,29.4,25.6,79,54,36,29.85,29.53,9,1,9,0.00
2014-4-9,60.8,48.1,32.7,30.2,26.2,21.5,69,45,28,30.03,29.85,8,1,8,0.00
2014-4-10,52.5,50.9,49.3,28.5,27.9,27.4,44,41,39,29.88,29.82,6,2,6,0.00
2014-5-11,83.5,75.7,23.5,60.7,52.0,4.3,83,47,30,29.94,29.85,8,1,8,0.00
2014-5-12,84.4,72.7,60.3,68.7,62.9,56.8,94,73,50,29.94,29.82,10,2,10,0.04
2014-5-13,79.0,66.8,34.2,68.1,60.4,0.0,94,80,55,30.06,29.79,8,1,8,0.13
2014-5-14,59.2,53.5,48.4,49.7,46.5,39.8,97,78,51,30.15,29.88,6,0,6,0.70
2014-5-15,48.4,46.0,45.1,47.3,45.0,44.0,98,96,95,29.88,29.79,6,1,6,0.17
2014-6-14,74.3,68.3,60.3,45.0,41.4,38.6,57,38,31,30.06,29.97,6,0,6,7.97
2014-6-15,60.3,58.4,57.2,46.9,45.7,44.8,67,63,57,30.06,30.03,1,0,1,0.00
2014-7-11,81.1,68.7,56.5,59.2,53.3,49.2,88,62,35,30.24,30.09,8,1,8,0.00
2014-8-26,79.2,73.5,73.0,70.3,70.0,63.1,89,89,88,30.06,30.06,0,0,1,3.61
2014-8-27,77.7,72.0,63.7,58.6,55.4,51.7,72,57,42,30.15,30.03,4,0,4,3.61
2014-8-28,63.7,61.9,60.1,54.6,53.3,51.0,76,73,72,30.12,30.12,0,0,0,0.00
2014-8-31,84.0,75.4,68.7,71.7,67.6,63.6,93,78,52,29.97,29.88,6,0,6,0.08
2014-9-1,78.6,72.9,68.4,73.7,68.1,63.7,98,85,66,29.94,29.74,10,1,10,0.29
2014-9-2,78.6,71.6,65.3,67.6,61.8,55.3,92,73,46,29.97,29.79,5,0,6,0.00
2014-9-3,83.7,71.2,61.5,66.3,57.7,52.0,92,66,37,30.06,29.94,6,0,6,0.00
2014-9-4,82.9,72.3,64.8,82.6,63.5,57.3,100,75,55,30.03,29.91,6,1,6,0.00
2014-9-5,91.0,78.8,73.4,75.5,70.0,67.0,85,75,51,30.00,29.85,6,1,6,0.13
2014-9-6,72.7,71.6,69.3,54.4,49.8,46.5,57,46,40,30.09,30.06,5,1,5,0.00
2014-9-10,75.9,69.4,58.1,72.2,66.4,55.5,98,90,82,29.76,29.53,10,1,10,0.75
2014-9-11,60.3,54.6,50.2,55.3,49.0,45.8,94,82,61,30.27,29.74,6,1,6,0.04
2014-9-12,57.4,52.2,48.9,49.4,46.8,43.8,93,82,62,30.39,30.21,5,0,6,0.00
2014-9-13,59.7,52.5,46.8,48.8,43.8,37.5,95,74,47,30.36,30.21,6,0,6,0.16
2014-9-14,64.2,53.9,44.6,47.2,42.4,37.6,91,68,39,30.39,30.18,7,1,7,0.00
2014-9-15,63.9,54.3,48.4,51.8,47.6,43.6,93,79,55,30.21,30.06,5,0,5,0.09
2014-9-16,67.6,55.2,45.9,52.3,45.7,39.8,96,73,41,30.24,30.09,4,0,4,0.00
2014-9-17,68.2,54.1,42.3,47.6,42.3,38.6,89,67,38,30.15,29.97,5,0,5,0.00
2014-9-18,69.6,56.7,45.3,51.0,46.1,41.6,90,70,44,30.21,30.00,4,0,5,0.00
2014-9-19,71.1,59.2,48.7,52.7,47.3,44.2,91,68,41,30.30,29.97,8,1,8,0.00
2014-9-20,80.8,66.0,56.1,65.8,56.2,44.5,93,71,51,30.00,29.76,9,1,9,0.00
2014-9-21,67.6,58.8,46.2,66.8,52.9,38.4,97,81,66,30.12,29.68,8,2,8,0.33
2014-9-22,63.1,52.1,42.3,43.0,39.6,35.8,81,64,42,30.30,30.09,8,1,8,0.00
2014-9-23,72.7,57.6,45.3,51.5,46.2,41.4,88,68,42,30.39,30.27,6,0,6,0.00
2014-9-24,74.8,60.5,49.1,53.4,48.0,44.1,92,67,35,30.44,30.27,6,0,8,0.00
2014-9-25,77.2,62.7,51.8,56.9,49.8,46.0,90,66,35,30.33,30.21,4,0,4,0.00
2014-9-26,79.0,63.4,51.1,56.2,49.6,44.8,90,64,32,30.33,30.18,4,0,5,0.00
2014-9-27,78.4,63.8,51.8,57.2,51.1,46.0,91,67,36,30.30,30.12,4,0,5,0.00
2014-9-28,76.5,63.9,54.9,58.1,51.9,48.0,90,68,39,30.21,30.03,5,0,5,0.00
2014-9-29,78.8,64.5,52.7,59.9,53.1,49.2,91,69,42,30.06,29.85,5,0,6,71.84
2014-9-30,58.1,52.3,47.7,54.4,47.5,45.3,94,84,70,30.06,29.91,4,0,4,0.08
2014-10-1,65.1,57.2,52.0,49.6,47.3,45.4,84,70,50,30.12,29.97,6,1,6,0.00
2014-10-2,72.0,63.0,55.4,64.1,55.2,47.1,94,76,64,30.03,29.74,6,1,8,0.46
2014-10-3,64.9,58.4,44.2,64.2,55.8,40.9,98,91,70,29.74,29.38,8,1,8,2.53
2014-10-4,45.0,42.7,39.7,42.6,39.0,32.6,96,87,66,29.76,29.65,7,1,7,0.70
2014-10-5,56.3,47.4,41.5,42.6,37.3,30.9,96,71,39,29.82,29.62,6,1,6,0.00
2014-10-6,61.0,50.4,43.3,50.9,42.8,37.1,86,76,49,29.68,29.50,10,1,10,0.17
2014-10-7,65.7,51.0,41.7,53.7,43.5,38.1,89,77,51,29.71,29.59,10,1,10,0.25
2014-10-11,60.1,52.2,41.2,39.1,32.3,29.7,73,48,35,30.24,30.15,4,1,4,0.00
2014-10-12,63.5,49.1,35.1,39.1,33.2,30.4,86,58,33,30.21,29.91,10,1,10,0.00
2014-10-13,69.3,61.3,51.6,66.5,56.7,37.2,96,86,53,29.94,29.68,10,1,10,0.12
2014-10-14,69.8,63.5,57.6,62.1,59.8,56.1,97,88,71,29.68,29.53,14,1,14,0.46
2014-10-15,61.0,56.7,53.6,56.9,53.1,49.7,97,88,73,29.82,29.62,4,0,4,0.00
2014-10-16,61.0,54.6,50.0,57.7,51.7,48.5,98,90,77,29.82,29.71,4,0,4,0.00
2014-10-17,55.0,54.5,54.0,51.6,51.0,50.4,89,88,87,29.74,29.65,6,2,6,0.00
2014-10-18,44.6,40.3,37.4,35.8,32.8,31.4,79,74,68,30.18,30.09,3,0,3,0.04
2014-10-19,55.6,43.0,31.6,38.7,33.3,28.5,90,70,47,30.21,29.94,6,1,6,0.00
2014-10-20,59.9,51.3,45.9,50.4,45.0,38.5,92,80,64,29.97,29.79,6,1,6,0.05
2014-10-21,50.0,45.8,36.7,45.9,38.9,32.2,92,77,57,30.30,29.97,6,1,6,0.00
2014-10-22,53.1,41.0,33.1,38.5,34.1,29.9,91,77,54,30.41,30.27,6,0,6,0.00
2014-10-23,60.6,45.0,32.4,44.6,35.7,29.5,96,73,39,30.33,30.06,6,0,6,0.00
2014-10-24,64.6,53.4,45.1,47.4,43.2,37.7,86,69,48,30.09,29.91,8,0,8,0.00
2014-10-25,68.5,57.8,47.3,54.4,42.5,29.2,92,62,26,29.97,29.79,9,2,9,0.00
2014-10-26,63.0,50.3,39.2,37.9,31.3,27.6,74,50,33,29.97,29.85,6,1,172,0.00
2014-10-27,74.8,60.0,42.1,55.2,42.6,32.3,72,53,43,29.94,29.62,11,1,11,0.00
2014-10-28,69.6,59.0,48.7,57.6,44.3,31.1,91,61,37,29.88,29.65,9,2,9,0.12
2014-10-29,49.3,46.3,44.2,38.6,34.7,30.2,76,64,51,30.12,29.88,6,1,6,0.00
2014-10-30,51.3,46.6,43.7,38.1,34.8,30.8,79,64,48,30.18,29.97,6,0,6,0.00
2014-10-31,46.2,38.9,32.7,38.7,32.0,17.8,93,77,54,30.27,29.91,12,1,12,0.21
2014-11-1,42.1,33.1,26.1,18.9,15.9,13.6,64,49,38,30.39,30.27,6,1,6,0.00
2014-11-2,53.6,37.3,23.9,30.8,21.0,15.0,78,54,35,30.41,30.21,6,1,6,0.00
2014-11-3,61.9,52.0,41.4,35.9,27.7,18.8,48,39,35,30.24,29.97,11,2,11,0.00
2014-11-4,57.0,51.1,42.1,50.5,39.9,29.5,96,69,35,30.06,29.85,10,2,10,0.00
2014-11-5,57.6,47.5,37.4,39.7,35.1,29.9,90,65,39,30.12,29.94,8,1,8,0.00
2014-11-6,49.6,44.1,36.7,44.3,36.5,24.8,92,75,49,30.12,29.74,9,2,9,0.04
2014-11-7,41.5,38.0,33.3,31.5,28.4,22.7,75,68,59,30.18,29.85,9,1,9,0.00
2014-11-8,60.4,40.0,38.5,38.8,31.1,26.0,91,71,58,29.94,29.74,8,1,8,0.00
2014-11-9,46.6,40.1,34.2,29.9,26.6,23.5,73,59,43,29.94,29.79,11,1,11,0.00
2014-11-10,58.5,48.0,39.9,37.5,32.7,28.4,74,57,40,29.91,29.68,10,1,10,0.00
2014-11-11,59.7,45.6,34.3,45.2,35.5,25.2,90,70,49,30.00,29.65,8,2,8,0.17
2014-11-12,79.9,32.3,30.2,78.6,19.6,16.2,96,59,54,30.27,30.00,7,1,7,0.00
2014-11-13,34.3,28.5,23.7,25.7,20.5,15.9,85,72,56,30.24,30.15,5,1,6,0.00
2014-11-14,34.0,26.9,21.0,26.7,22.2,16.4,87,82,70,30.33,30.21,4,0,4,0.00
2014-11-15,35.8,26.6,17.6,22.0,15.6,11.0,85,64,46,30.39,30.21,5,1,5,0.00
2014-11-16,32.7,29.3,26.4,25.1,20.3,13.9,81,69,57,30.21,29.85,6,2,6,0.00
2014-11-17,30.2,23.0,15.1,25.2,15.6,9.7,84,73,59,29.88,29.68,10,2,10,0.00
2014-11-18,21.9,16.5,14.2,15.2,11.4,8.8,86,80,63,30.09,29.82,7,1,7,0.00
2014-11-19,27.7,21.2,13.8,22.9,13.8,4.2,83,73,62,30.06,29.68,8,1,8,0.00
2014-11-20,28.9,23.4,20.3,15.2,11.2,7.3,72,59,45,30.18,29.85,10,2,10,0.00
2014-11-21,32.0,23.4,15.3,15.9,11.1,8.5,78,60,44,30.44,30.15,8,1,8,0.00
2014-11-22,47.3,37.2,23.5,45.7,32.9,9.4,98,86,52,30.21,29.85,4,1,5,0.24
2014-11-23,52.3,48.9,46.6,49.5,45.9,42.9,98,89,79,29.88,29.12,6,1,6,1.36
2014-11-24,52.0,42.3,30.0,51.3,39.8,24.9,98,91,77,29.74,29.03,13,2,13,2.03
2014-11-25,30.6,28.5,27.3,25.5,21.8,17.8,85,76,67,30.21,29.71,8,2,8,2.03
2014-11-26,30.6,28.1,26.8,20.2,18.2,16.5,72,66,59,30.21,30.03,6,0,6,2.03
2014-11-27,33.3,27.3,20.7,27.8,20.2,14.0,81,74,66,30.30,30.06,7,1,7,0.00
2014-11-28,29.8,24.1,20.7,19.2,14.9,10.4,76,68,54,30.30,29.91,7,1,7,0.00
2014-11-29,52.0,39.6,29.8,47.0,30.1,18.3,85,69,55,29.94,29.59,13,2,13,0.04
2014-11-30,56.3,48.1,34.5,50.5,43.8,29.6,93,85,73,30.15,29.62,6,2,9,0.00
2014-12-1,34.2,25.1,18.0,26.9,10.9,4.8,75,54,45,30.59,30.18,10,2,10,0.00
2014-12-2,37.2,26.7,16.7,27.6,15.9,4.7,88,64,47,30.56,30.00,7,2,7,0.00
2014-12-3,38.7,31.7,25.3,28.8,21.1,15.4,89,66,43,30.30,29.97,11,2,11,0.00
2014-12-4,33.3,28.7,23.0,17.8,14.0,11.3,66,54,44,30.41,30.27,6,1,6,0.00
2014-12-5,38.7,34.2,31.5,27.6,23.9,16.8,77,66,56,30.30,30.15,6,1,6,0.00
2014-12-6,40.3,34.6,28.4,30.4,23.5,13.6,83,65,44,30.59,30.15,7,1,7,0.00
2014-12-7,37.4,30.1,22.8,22.1,14.9,8.9,68,53,42,30.65,30.27,9,1,9,0.00
2014-12-8,39.2,33.8,30.2,32.7,26.1,19.9,93,74,61,30.33,29.97,8,1,8,0.04
2014-12-9,37.8,35.1,33.6,35.2,32.7,29.7,97,91,75,30.27,29.97,4,0,4,0.12
2014-12-12,35.1,33.4,32.2,34.5,31.1,28.4,98,92,84,30.21,30.15,6,1,6,0.00
2014-12-13,44.6,39.0,34.9,44.1,37.8,33.0,98,96,91,30.18,29.97,5,1,8,0.00
2014-12-14,53.4,48.6,44.8,47.4,45.0,44.1,98,87,75,30.06,29.97,4,1,4,2.23
2014-12-15,52.3,46.7,44.1,44.9,41.6,0.0,95,83,61,30.03,29.74,8,2,8,0.04
2014-12-16,44.8,41.7,33.4,44.0,40.5,31.4,98,96,92,30.00,29.65,9,1,9,0.04
2014-12-17,34.0,29.6,27.7,31.6,20.7,0.0,93,69,61,30.24,29.97,10,2,228,0.00
2014-12-18,32.2,29.1,27.7,24.8,22.2,18.7,87,75,66,30.24,30.15,4,1,8,0.00
2014-12-19,37.2,29.2,23.2,25.6,20.9,17.0,88,72,50,30.30,30.18,4,0,4,0.00
2014-12-20,32.2,27.0,19.8,27.0,21.0,14.8,87,78,66,30.27,30.15,4,0,4,0.00
2014-12-21,35.8,31.5,28.6,27.2,24.9,22.1,88,77,60,30.24,30.06,9,1,9,0.00
2014-12-22,38.1,32.6,26.6,34.9,26.7,21.0,94,79,64,30.09,29.74,6,1,6,0.13
2014-12-23,52.2,43.9,36.7,49.6,39.0,34.3,98,84,57,29.76,29.65,7,0,7,0.13
2014-12-24,43.7,38.1,33.8,39.0,36.4,33.3,98,94,75,29.74,29.35,5,0,5,0.58
2014-12-25,37.6,35.6,34.0,36.0,30.8,27.1,98,83,67,30.06,29.47,8,1,8,0.08
2014-12-26,51.3,41.1,33.1,39.7,33.7,0.0,91,76,51,30.06,29.97,8,1,8,0.00
2014-12-27,48.0,42.6,35.4,46.7,39.0,27.6,98,87,73,30.06,29.88,10,2,10,0.00
2014-12-28,36.7,32.7,27.7,28.5,22.0,16.2,78,65,50,30.18,29.97,6,1,6,0.00
2014-12-29,33.3,27.8,19.9,20.5,13.4,6.9,72,55,40,30.39,30.15,6,1,6,0.00
2014-12-30,24.4,20.0,18.3,12.3,6.4,2.4,62,55,49,30.53,30.36,6,1,6,0.00
2014-12-31,21.2,17.3,15.3,5.7,2.0,-2.3,61,50,45,30.41,30.00,6,2,10,0.00
2015-1-1,30.0,23.7,17.1,17.0,9.5,4.5,59,54,49,30.00,29.79,11,3,11,0.00
2015-1-2,37.4,31.1,27.9,19.0,16.5,0.0,63,54,44,30.24,29.94,6,0,6,0.00